User: anonymous   Login
Location: Northam
(31.6525°S, 116.6655°E)
Time: 20:48:07
(UTC+08:00)
Language:

Transit 4A - Orbit

View from above orbital plane
View from above orbital plane
View from above satellite
View from above satellite

Ground track
Ground track

The orbit data is extracted from the following two-line orbital elements,

1   116U 61015A   21172.62037623 -.00000059  00000-0  13771-4 0  9991
2   116  66.8106  25.7282 0069165 112.1968 248.6469 13.91792025 43687
Epoch (UTC): 21 June 2021 14:53:20
Eccentricity: 0.0069165
inclination: 66.8106°
perigee height: 872 km
apogee height: 973 km
right ascension of ascending node: 25.7282°
argument of perigee: 112.1968°
revolutions per day: 13.91792025
mean anomaly at epoch: 248.6469°
orbit number at epoch: 4368

The dashed part of the orbit path shows where the satellite is in the earth's shadow,  

DLR